This is the latest recevied weather packets stored in our database for station/object dl1wer-13. If no packets are shown the sender has not sent any weather packets the latest 10 day(s).
| Time | Temp. | Humidity | Pressure | Rain* | Wind** | Luminosity | Snow |
|---|---|---|---|---|---|---|---|
| 1778065823 | 17.78° C | 51% | 1032.1 hPa | 0 mm | - | - | - |
| 1778065223 | 17.78° C | 54% | 1032.2 hPa | 0 mm | - | - | - |
| 1778064622 | 17.78° C | 55% | 1032 hPa | 0 mm | - | - | - |
| 1778064023 | 17.22° C | 61% | 1031.9 hPa | 0 mm | - | - | - |
| 1778063423 | 16.67° C | 61% | 1032.5 hPa | 0 mm | - | - | - |
| 1778062823 | 16.67° C | 60% | 1032.7 hPa | 0 mm | - | - | - |
| 1778062223 | 16.67° C | 59% | 1032.7 hPa | 0 mm | - | - | - |
| 1778061624 | 16.67° C | 60% | 1033.1 hPa | 0 mm | - | - | - |
| 1778061022 | 16.67° C | 59% | 1032.9 hPa | 0 mm | - | - | - |
| 1778060422 | 16.67° C | 60% | 1032.9 hPa | 0 mm | - | - | - |
| 1778059823 | 17.22° C | 60% | 1032.8 hPa | 0 mm | - | - | - |
| 1778059222 | 17.22° C | 61% | 1033 hPa | 0 mm | - | - | - |
| 1778058623 | 16.67° C | 63% | 1032.9 hPa | 0 mm | - | - | - |
| 1778058023 | 16.67° C | 66% | 1032.9 hPa | 0 mm | - | - | - |
| 1778057423 | 15.56° C | 68% | 1033 hPa | 0 mm | - | - | - |
| 1778056822 | 15° C | 70% | 1032.9 hPa | 0 mm | - | - | - |
| 1778056223 | 15° C | 70% | 1033.1 hPa | 0 mm | - | - | - |
| 1778055622 | 15° C | 71% | 1033.1 hPa | 0 mm | - | - | - |
| 1778055022 | 14.44° C | 72% | 1032.9 hPa | 0 mm | - | - | - |
| 1778054422 | 14.44° C | 74% | 1033.1 hPa | 0 mm | - | - | - |
| 1778053823 | 13.89° C | 73% | 1033.1 hPa | 0 mm | - | - | - |
| 1778053223 | 13.89° C | 72% | 1032.9 hPa | 0 mm | - | - | - |
| 1778052623 | 13.89° C | 74% | 1033.2 hPa | 0 mm | - | - | - |
| 1778052022 | 13.89° C | 77% | 1033 hPa | 0 mm | - | - | - |
| 1778051422 | 13.33° C | 79% | 1033.2 hPa | 0 mm | - | - | - |
* Rain latest hour (hover to see other rain measurements)
** Current wind speed in m/s (hover to see current wind gust speed)